sat.trackr.live / text

‹ back to catalog

STARLINK-32048

NORAD 60156 · 2024-120X

PAYLOAD ACTIVE UNKNOWN

§ Identity

Operator
Country
US
Launch date
2024-06-27
Launch site
AFETR
Launch vehicle
Mass (kg)
RCS (m²)

Purposes: comms

External: N2YO · Heavens-Above · Gunter

§ Orbital elements

Epoch: 2026-09-21T21:12:48.068352Z

Period
93.85 min
Inclination
53.1592°
Eccentricity
0.0001336
Mean motion
15.34387580 rev/d
Perigee alt
461.8 km
Apogee alt
463.7 km
Semi-major
6,840.9 km
B*
1.2089e-5
RAAN
125.1264°
Arg perigee
92.5440°
Mean anomaly
267.5716°
Rev number
12,646

§ Raw data

STARLINK-320481 60156U 24120X   26264.88388968  .00000032  00000+0  12089-4 0  99932 60156  53.1592 125.1264 0001336  92.5440 267.5716 15.34387580126460

JSON: /api/v1/satellites/60156 · /tle

For live sub-satellite position, see the globe view (requires WebGL).

§ Visibility from observer

Set your observer location to see the next 7 days of passes ≥ 10°. The values pass through the URL so the page stays shareable.

No JS? Fill the form by hand. The geolocation button needs JavaScript.